When you browse on this site, cookies collect data to enhance your experience and personalize the content and advertising you see.
Visit our Privacy Policy to learn more. By continuing to use the site, you agree to this use of cookies and data.
  • In Hungary
  • List of Countries
  • For 7 days
  • Water Temperature
  • Satellite Maps
  • Weather Map
  • News
  • Weather Widgets
  • user-avatar
    Login

    Hourly Weather Zachepilovka

    Today, 18 November, Sunday

    Time Temperature Precipitation Wind Pressure Humidity
    00:00 -2°C° 0 mm 2 mps 766 mmHg 46%
    01:00 -2°C° 0 mm 2 mps 765 mmHg 46%
    02:00 -1°C° 0 mm 1 mps 765 mmHg 47%
    03:00 -1°C° 0 mm 1 mps 764 mmHg 47%
    04:00 -1°C° 0 mm 1 mps 764 mmHg 47%
    05:00 -1°C° 0 mm 1 mps 764 mmHg 47%
    06:00 -1°C° 0 mm 1 mps 763 mmHg 46%
    07:00 -1°C° 0 mm 0 mps 763 mmHg 45%
    08:00 -1°C° 0 mm 0 mps 763 mmHg 43%
    09:00 0°C° 0 mm 0 mps 762 mmHg 40%
    10:00 +1°C° 0 mm 0 mps 762 mmHg 36%
    11:00 +2°C° 0 mm 0 mps 762 mmHg 33%
    12:00 +3°C° 0 mm 0 mps 762 mmHg 32%
    13:00 +3°C° 0 mm 0 mps 761 mmHg 31%
    14:00 +3°C° 0 mm 0 mps 761 mmHg 31%
    15:00 +2°C° 0 mm 0 mps 761 mmHg 34%
    16:00 +1°C° 0 mm 0 mps 761 mmHg 37%
    17:00 0°C° 0 mm 0 mps 760 mmHg 40%
    18:00 0°C° 0 mm 0 mps 760 mmHg 41%
    19:00 +1°C° 0 mm 1 mps 760 mmHg 41%
    20:00 +1°C° 0 mm 1 mps 760 mmHg 42%
    21:00 +1°C° 0 mm 1 mps 760 mmHg 42%
    22:00 +1°C° 0 mm 1 mps 760 mmHg 43%
    23:00 +1°C° 0 mm 1 mps 761 mmHg 43%

    Tomorrow, 19 November, Monday

    Time Temperature Precipitation Wind Pressure Humidity
    00:00 0°C° 0 mm 1 mps 760 mmHg 44%
    01:00 -2°C° 0 mm 2 mps 760 mmHg 46%
    02:00 -2°C° 0 mm 2 mps 760 mmHg 48%
    03:00 -3°C° 0 mm 2 mps 760 mmHg 49%
    04:00 -3°C° 0 mm 2 mps 760 mmHg 51%
    05:00 -3°C° 0 mm 2 mps 760 mmHg 53%
    06:00 -3°C° 0 mm 2 mps 760 mmHg 54%
    07:00 -4°C° 0 mm 3 mps 760 mmHg 55%
    08:00 -2°C° 0 mm 3 mps 760 mmHg 56%
    09:00 -1°C° 0 mm 3 mps 760 mmHg 56%
    10:00 0°C° 0 mm 3 mps 760 mmHg 55%
    11:00 +1°C° 0 mm 3 mps 760 mmHg 54%
    12:00 0°C° 0 mm 4 mps 760 mmHg 56%
    13:00 0°C° 0 mm 4 mps 760 mmHg 58%
    14:00 +1°C° 0 mm 4 mps 759 mmHg 61%
    15:00 0°C° 0 mm 4 mps 759 mmHg 65%
    16:00 0°C° 0 mm 5 mps 759 mmHg 68%
    17:00 -1°C° 0 mm 5 mps 759 mmHg 72%
    18:00 -1°C° 0.2 mm 5 mps 758 mmHg 75%
    19:00 -2°C° 0.2 mm 6 mps 758 mmHg 78%
    20:00 -2°C° 0.2 mm 7 mps 758 mmHg 81%
    21:00 -2°C° 0.4 mm 7 mps 758 mmHg 83%
    22:00 -2°C° 0.4 mm 6 mps 757 mmHg 84%
    23:00 -2°C° 0.4 mm 6 mps 757 mmHg 85%

    Day after tomorrow, 20 November, Tuesday

    Time Temperature Precipitation Wind Pressure Humidity
    00:00 -2°C° 0.9 mm 7 mps 757 mmHg 87%
    01:00 -2°C° 0.9 mm 7 mps 756 mmHg 88%
    02:00 -2°C° 0.9 mm 8 mps 756 mmHg 89%
    03:00 -2°C° 1.3 mm 8 mps 756 mmHg 90%
    04:00 -2°C° 1.3 mm 8 mps 755 mmHg 91%
    05:00 -2°C° 1.3 mm 8 mps 755 mmHg 91%
    06:00 -2°C° 1.5 mm 8 mps 755 mmHg 92%
    07:00 -2°C° 1.5 mm 8 mps 755 mmHg 92%
    08:00 -2°C° 1.5 mm 8 mps 755 mmHg 92%
    09:00 -2°C° 0.4 mm 7 mps 756 mmHg 93%
    10:00 -2°C° 0.4 mm 7 mps 756 mmHg 93%
    11:00 -2°C° 0.4 mm 7 mps 756 mmHg 93%
    12:00 -2°C° 0.1 mm 6 mps 756 mmHg 93%
    13:00 -2°C° 0.1 mm 6 mps 757 mmHg 93%
    14:00 -1°C° 0.1 mm 5 mps 757 mmHg 93%
    15:00 -1°C° 0 mm 5 mps 757 mmHg 92%
    16:00 -1°C° 0 mm 5 mps 757 mmHg 91%
    17:00 -1°C° 0 mm 5 mps 758 mmHg 90%
    18:00 -2°C° 0 mm 5 mps 758 mmHg 90%
    19:00 -2°C° 0 mm 5 mps 758 mmHg 90%
    20:00 -2°C° 0 mm 4 mps 759 mmHg 89%
    21:00 -3°C° 0 mm 4 mps 759 mmHg 89%
    22:00 -2°C° 0 mm 3 mps 759 mmHg 89%
    23:00 -3°C° 0 mm 2 mps 759 mmHg 89%

    21 November, Wednesday

    Time Temperature Precipitation Wind Pressure Humidity
    00:00 -4°C° 0 mm 3 mps 759 mmHg 88%
    01:00 -4°C° 0 mm 3 mps 759 mmHg 88%
    02:00 -4°C° 0 mm 3 mps 759 mmHg 87%
    03:00 -4°C° 0 mm 3 mps 759 mmHg 87%
    04:00 -5°C° 0 mm 3 mps 759 mmHg 87%
    05:00 -5°C° 0 mm 3 mps 759 mmHg 86%
    06:00 -5°C° 0 mm 3 mps 759 mmHg 86%
    07:00 -5°C° 0 mm 3 mps 759 mmHg 87%
    08:00 -4°C° 0 mm 3 mps 760 mmHg 87%
    09:00 -4°C° 0 mm 3 mps 760 mmHg 86%
    10:00 -2°C° 0 mm 3 mps 760 mmHg 86%
    11:00 -2°C° 0 mm 4 mps 760 mmHg 86%
    12:00 -1°C° 0 mm 3 mps 759 mmHg 86%
    13:00 -1°C° 0 mm 3 mps 759 mmHg 87%
    14:00 -1°C° 0 mm 3 mps 759 mmHg 87%
    15:00 -1°C° 0 mm 3 mps 759 mmHg 88%
    16:00 -2°C° 0 mm 3 mps 759 mmHg 88%
    17:00 -2°C° 0 mm 3 mps 759 mmHg 89%
    18:00 -4°C° 0 mm 3 mps 760 mmHg 89%
    19:00 -4°C° 0 mm 4 mps 760 mmHg 88%
    20:00 -4°C° 0 mm 4 mps 760 mmHg 88%
    21:00 -4°C° 0 mm 4 mps 760 mmHg 88%
    22:00 -5°C° 0 mm 4 mps 760 mmHg 89%
    23:00 -5°C° 0 mm 3 mps 760 mmHg 89%

    22 November, Thursday

    Time Temperature Precipitation Wind Pressure Humidity
    00:00 -6°C° 0 mm 3 mps 760 mmHg 89%
    01:00 -6°C° 0 mm 3 mps 760 mmHg 89%
    02:00 -6°C° 0 mm 3 mps 760 mmHg 89%
    03:00 -7°C° 0 mm 3 mps 760 mmHg 89%
    04:00 -7°C° 0 mm 3 mps 760 mmHg 89%
    05:00 -7°C° 0 mm 3 mps 760 mmHg 89%
    06:00 -7°C° 0 mm 3 mps 760 mmHg 89%
    07:00 -7°C° 0 mm 3 mps 761 mmHg 89%
    08:00 -7°C° 0 mm 3 mps 761 mmHg 89%
    09:00 -6°C° 0 mm 3 mps 761 mmHg 88%
    10:00 -5°C° 0 mm 3 mps 761 mmHg 86%
    11:00 -4°C° 0 mm 3 mps 761 mmHg 84%
    12:00 -4°C° 0 mm 3 mps 761 mmHg 84%
    13:00 -2°C° 0 mm 3 mps 761 mmHg 85%
    14:00 -2°C° 0 mm 3 mps 761 mmHg 85%
    15:00 -4°C° 0 mm 3 mps 761 mmHg 86%
    16:00 -4°C° 0 mm 2 mps 761 mmHg 86%
    17:00 -5°C° 0 mm 2 mps 761 mmHg 87%
    18:00 -5°C° 0 mm 2 mps 762 mmHg 87%
    19:00 -5°C° 0 mm 2 mps 762 mmHg 87%
    20:00 -6°C° 0 mm 2 mps 762 mmHg 87%
    21:00 -6°C° 0 mm 2 mps 762 mmHg 87%
    22:00 -6°C° 0 mm 2 mps 762 mmHg 87%
    23:00 -6°C° 0 mm 2 mps 763 mmHg 87%

    23 November, Friday

    Time Temperature Precipitation Wind Pressure Humidity
    00:00 -6°C° 0 mm 2 mps 763 mmHg 87%
    01:00 -6°C° 0 mm 2 mps 763 mmHg 87%
    02:00 -6°C° 0 mm 2 mps 763 mmHg 88%
    03:00 -6°C° 0 mm 2 mps 763 mmHg 88%
    04:00 -6°C° 0 mm 2 mps 763 mmHg 88%
    05:00 -6°C° 0 mm 2 mps 763 mmHg 89%
    06:00 -6°C° 0 mm 2 mps 763 mmHg 89%
    07:00 -6°C° 0 mm 2 mps 763 mmHg 90%
    08:00 -6°C° 0 mm 2 mps 764 mmHg 90%
    09:00 -5°C° 0 mm 2 mps 764 mmHg 89%
    10:00 -4°C° 0 mm 2 mps 764 mmHg 87%
    11:00 -3°C° 0 mm 2 mps 764 mmHg 86%
    12:00 -3°C° 0 mm 2 mps 764 mmHg 87%
    13:00 -1°C° 0 mm 1 mps 764 mmHg 87%
    14:00 0°C° 0 mm 1 mps 764 mmHg 88%
    15:00 -1°C° 0 mm 1 mps 764 mmHg 89%
    16:00 -2°C° 0 mm 1 mps 764 mmHg 90%
    17:00 -3°C° 0 mm 1 mps 764 mmHg 90%
    18:00 -3°C° 0 mm 1 mps 764 mmHg 90%
    19:00 -4°C° 0 mm 1 mps 764 mmHg 91%
    20:00 -4°C° 0 mm 1 mps 764 mmHg 91%
    21:00 -4°C° 0 mm 1 mps 764 mmHg 91%
    22:00 -4°C° 0 mm 1 mps 764 mmHg 91%
    23:00 -4°C° 0 mm 1 mps 764 mmHg 91%
    Show more